Muskogee, OK

1:23 AM CDT on September 01, 2016 (GMT -0500)
Davis

Weather History for KMKO - November, 2012

Change the Weather History Date:

Wednesday, November 14, 2012

  Actual Average Record
Temperature  
Mean Temperature 45 °F -  
Max Temperature 57 °F 59 °F 80 °F (1999)
Min Temperature 33 °F 39 °F 23 °F (2000)
Degree Days  
Heating Degree Days 20    
Moisture  
Dew Point 28 °F    
Average Humidity 56    
Maximum Humidity 82    
Minimum Humidity 28    
Precipitation  
Precipitation 0.00 in - - ()
Sea Level Pressure  
Sea Level Pressure 30.38 in    
Wind  
Wind Speed 6 mph (SSE)    
Max Wind Speed 9 mph    
Max Gust Speed -    
Visibility 10 miles    
Events      
Averages and records for this station are not official NWS values.
T = Trace of Precipitation, MM = Missing Value Source: NWS Daily Summary

Daily Weather History Graph

Daily Weather History Graph

Search for Another Location

Airport or City:

Trip Planner

Search our weather history database for the weather conditions in past years. The results will help you decide how hot, cold, wet, or windy it might be!

Date:

Astronomy

Nov. 14, 2012 Rise Set
Actual Time 6:56 AM CST 5:14 PM CST
Civil Twilight 6:29 AM CST 5:41 PM CST
Nautical Twilight 5:58 AM CST 6:12 PM CST
Astronomical Twilight 5:28 AM CST 6:42 PM CST
Moon 7:45 AM CST (11/14) 6:06 PM CST (11/14)
Length of Visible Light 11h 12m
Length of Day
10h 18m
New Moon, 1% of the Moon is Illuminated
Nov 14
New Moon
Nov 20
First Quarter
Nov 28
Full
Dec 6
Last Quarter
Dec 13
New

Hourly Weather History & Observations

Time (CST) Temp. Windchill Dew Point Humidity Pressure Visibility Wind Dir Wind Speed Gust Speed Precip Events Conditions
12:53 AM 41.0 °F 36.4 °F 28.9 °F 62% 30.41 in 10.0 mi South 6.9 mph - N/A   Clear
1:53 AM 39.0 °F 33.4 °F 28.9 °F 67% 30.41 in 10.0 mi SSE 8.1 mph - N/A   Clear
2:53 AM 37.9 °F 33.5 °F 28.0 °F 68% 30.42 in 10.0 mi South 5.8 mph - N/A   Clear
3:53 AM 37.0 °F 32.4 °F 28.0 °F 70% 30.42 in 10.0 mi South 5.8 mph - N/A   Clear
4:53 AM 34.0 °F 28.8 °F 28.0 °F 79% 30.42 in 10.0 mi South 5.8 mph - N/A   Clear
5:53 AM 34.0 °F 28.0 °F 28.0 °F 79% 30.43 in 10.0 mi South 6.9 mph - N/A   Clear
6:53 AM 33.1 °F 26.9 °F 28.0 °F 82% 30.44 in 10.0 mi South 6.9 mph - N/A   Clear
7:53 AM 37.0 °F 33.3 °F 30.0 °F 76% 30.45 in 10.0 mi South 4.6 mph - N/A   Clear
8:53 AM 43.0 °F 38.8 °F 30.9 °F 62% 30.46 in 10.0 mi SSE 6.9 mph - N/A   Clear
9:53 AM 48.0 °F - 30.9 °F 52% 30.46 in 10.0 mi SE 8.1 mph - N/A   Clear
10:53 AM 51.1 °F - 30.9 °F 46% 30.46 in 10.0 mi South 8.1 mph - N/A   Clear
11:53 AM 53.1 °F - 32.0 °F 45% 30.42 in 10.0 mi SSE 9.2 mph - N/A   Clear
12:53 PM 55.9 °F - 27.0 °F 33% 30.39 in 10.0 mi South 5.8 mph - N/A   Clear
1:53 PM 57.9 °F - 27.0 °F 31% 30.36 in 10.0 mi SE 6.9 mph - N/A   Clear
2:53 PM 57.9 °F - 25.0 °F 28% 30.35 in 10.0 mi South 4.6 mph - N/A   Clear
3:53 PM 57.0 °F - 26.1 °F 30% 30.34 in 10.0 mi South 3.5 mph - N/A   Clear
4:53 PM 52.0 °F - 28.0 °F 40% 30.32 in 10.0 mi SE 5.8 mph - N/A   Clear
5:53 PM 48.0 °F - 28.0 °F 46% 30.32 in 10.0 mi SE 3.5 mph - N/A   Clear
6:53 PM 46.9 °F - 28.9 °F 50% 30.32 in 10.0 mi SSE 3.5 mph - N/A   Clear
7:53 PM 45.0 °F 42.6 °F 28.9 °F 53% 30.32 in 10.0 mi South 4.6 mph - N/A   Clear
8:53 PM 44.1 °F 40.8 °F 27.0 °F 51% 30.32 in 10.0 mi SSE 5.8 mph - N/A   Clear
9:53 PM 43.0 °F 40.3 °F 27.0 °F 53% 30.32 in 10.0 mi SSE 4.6 mph - N/A   Clear
10:53 PM 39.9 °F 36.7 °F 28.0 °F 63% 30.32 in 10.0 mi SE 4.6 mph - N/A   Clear
11:53 PM 37.9 °F 33.5 °F 30.0 °F 73% 30.32 in 10.0 mi SE 5.8 mph - N/A   Clear